START 1 DEB, 27752

Orbit data source: Space-Track

START 1 DEB, 27752 is space debris in LEO originally from a launch on Thu, 25 Mar 1993 UTC launched from the Plesetsk Missile And Space Complex (PKMTR). Debris objects in space refer to the collection of defunct objects orbiting the Earth. Examples of debris include non-operational satellites, rocket bodies, and fragments generated from explosions, collisions, or faulty payload assembly.

Loading next visibility...
Identifier
27752, 1993-014G
Orbit
LEO
Country
Flag of CISCIS
Related business
Manufacturer
Kompleks-MIT
Mission
Spacecraft
Bus & Motor
Unknown
Mass
Unknown
Launch date (UTC)
1993-03-25 (33 years ago)
Launch vehicle
Unknown
Launch site
Plesetsk Missile And Space Complex (PKMTR)
Object type
Payload
Rocket body
Debris
Shape & HBR
Unknown shape, 0.1 m
Radar Cross Section
Small (<0.1 m²)

Expand to show TLE details & history
Last TLE update: 3 days ago

TLE from 3 days ago
0 START 1 DEB
1 27752U 93014G   25292.33081412  .00000978  00000-0  33224-3 0  9993
2 27752  75.7589 312.7748 0179731 238.3442 120.0078 14.28719787224495
Epoch: 2025-10-19T07:56Z
TLE epoch observation values (Epoch: 2025-10-19T07:56:22.339Z)
Latitude
-0.00011°
Longitude
165.63268°
Altitude
864.92 km
Speed
7.386 km/s
True Right ascension
20h 51m 05s
True Declination
0° 00' 00"
Sunlit
Object was in daylight at epoch
Visualization orbit readout
Latitude
Unknown
Longitude
Unknown
Altitude
Unknown
Speed
Unknown
Apparent Right ascension
Unknown
Apparent Declination
Unknown
Sunlit
N/A
Visualization observer readout
Local Sidereal Time
17:58:12
Azimuth
Unknown
Elevation
Unknown
Doppler factor
Unknown
Orbital elements
Apogee altitude
922.402 km
Perigee altitude
664.608 km
Semi-major axis
7,171.642 km
Eccentricity
0.01797
Inclination
75.7589°
RAAN
312.7748°
Arg. of periapsis
238.3442°
True anomaly
121.77119°
Mean anomaly
120.0078°
Eccentric anomaly
120.8915°
Mean motion
3.57368 °/min
Orbital period
100.74 mins
BSTAR
0.00033224
Loading maneuver chart data...
Computing Atmospheric mass density...
Loading historical data...
Loading historical data...
Loading historical data...
Loading historical data...
Loading historical data...
Loading historical data...
Loading historical data...

Documentation

Showing up to 5 results
|